Theta_e
327 327 326 325 324 324 324 323 322 320 320 319 319 319 320 321 320 319 318 317 318 319 319 319 320 320 311 303 304 313 327 323 311 305 303 302 300 298 295 295 296 294 297 299 301 300 300
326 325 325 324 324 324 324 323 322 320 319 319 319 319 319 319 319 319 317 317 317 317 318 319 320 319 306 297 309 315 309 307 304 303 302 302 300 300 297 296 295 298 298 299 300 301 300
326 325 324 323 322 322 323 321 321 320 320 319 319 318 318 319 318 317 317 317 317 317 318 319 320 316 304 304 311 312 310 305 306 305 303 304 304 299 299 297 302 300 297 298 298 298 298
325 325 324 322 321 321 321 320 320 320 320 320 320 318 317 316 316 316 316 316 316 317 318 319 320 309 303 314 313 313 309 309 309 308 307 307 305 302 300 301 299 295 294 291 298 298 300
324 324 324 322 321 320 319 319 319 320 320 319 319 318 317 316 315 315 315 316 316 317 318 318 307 304 302 316 309 310 308 307 308 307 306 309 304 298 298 293 290 291 288 290 293 298 297
324 324 323 322 321 320 320 319 319 319 319 318 318 318 317 315 315 314 314 315 316 315 316 315 312 300 305 304 307 309 309 306 304 305 303 301 297 293 292 290 285 287 288 289 289 294 296
324 323 323 322 321 320 320 320 319 318 318 318 318 317 317 316 315 314 312 309 304 304 305 301 302 302 304 307 310 307 308 304 302 300 293 297 292 289 292 293 293 291 290 290 293 297 293
323 322 322 322 321 321 321 321 318 317 318 318 317 317 316 316 315 314 310 306 305 305 298 305 305 305 308 308 302 304 305 298 297 292 295 294 290 296 296 295 294 293 290 290 293 296 293
321 321 321 321 321 321 321 321 318 317 317 317 316 316 316 315 314 312 309 308 311 307 296 301 306 305 306 306 301 301 301 298 295 293 293 291 295 299 297 294 293 291 290 289 290 291 289
320 319 320 321 321 320 320 320 319 317 316 316 316 315 315 315 310 309 307 313 313 307 292 298 303 303 305 304 298 304 303 300 297 294 295 293 297 296 294 294 294 288 295 293 290 287 283
319 319 319 319 319 318 318 318 318 317 316 316 315 315 315 315 307 306 310 312 312 303 282 299 300 305 302 298 300 300 303 300 295 296 295 294 295 295 294 295 296 294 295 292 290 287 283
317 318 318 318 318 317 317 317 316 316 316 315 314 314 313 312 309 311 312 309 305 291 284 296 299 298 299 300 298 300 299 301 300 295 294 295 297 296 296 298 297 297 292 290 286 284 279
316 317 318 318 317 317 317 316 316 315 315 314 313 314 314 314 308 312 308 304 293 284 299 294 296 299 297 297 298 298 298 297 294 291 292 295 296 298 297 291 293 290 287 281 280 278 279
315 317 317 317 317 316 316 315 315 314 314 314 312 312 314 314 311 311 307 299 288 293 295 298 298 298 295 297 297 298 295 293 296 294 289 288 286 292 294 291 289 288 288 281 276 278 281
314 316 317 316 316 316 315 315 315 314 313 312 311 313 312 313 312 312 303 290 293 295 299 295 296 293 293 296 296 296 293 293 295 294 289 288 288 294 294 293 293 288 284 288 283 283 281
314 316 316 315 315 315 314 314 314 314 312 312 312 310 309 314 315 310 298 294 296 299 299 299 293 297 293 293 295 295 295 296 294 295 295 292 287 294 294 292 292 290 293 286 286 278 278
311 315 315 315 314 314 314 314 313 313 312 313 310 304 306 311 313 302 290 294 298 300 301 297 295 296 297 296 296 296 296 299 298 296 296 294 291 289 293 290 287 287 287 288 288 285 279
307 314 315 314 314 314 313 313 313 312 312 314 308 299 303 308 299 298 293 297 300 300 301 299 298 297 297 296 295 295 295 298 298 297 293 295 290 285 289 293 289 286 286 289 283 281 281
307 311 314 314 313 314 313 313 312 311 314 313 303 296 302 302 291 291 294 296 298 298 298 298 296 298 299 295 291 296 297 298 298 297 293 293 288 283 283 282 284 283 284 286 283 281 277
307 308 313 313 313 312 313 312 312 312 314 306 297 287 291 296 293 296 292 291 293 296 298 298 296 296 294 292 296 293 295 297 295 294 296 295 289 286 281 284 283 281 283 284 282 276 276
307 309 312 313 312 312 312 312 311 312 313 309 300 292 295 286 287 292 297 295 292 293 295 297 293 295 293 288 290 290 295 294 294 294 293 291 283 284 284 283 283 283 282 283 280 281 276
307 309 310 311 312 312 312 311 311 312 313 312 292 291 292 291 295 292 291 290 295 294 292 291 292 293 294 291 291 287 291 291 290 290 289 288 282 281 271 280 280 279 281 281 281 281 280
307 307 309 310 311 312 312 311 311 312 314 308 297 296 299 290 288 290 292 295 293 296 294 295 294 292 290 293 294 293 294 292 292 289 286 285 279 276 273 279 278 273 276 278 278 279 279
307 307 307 310 310 311 311 310 310 311 315 301 298 299 295 287 289 291 293 295 294 295 293 293 294 291 291 294 293 292 291 290 290 289 290 284 282 281 274 277 263 277 282 281 278 279 280
307 307 307 309 310 310 310 309 309 311 313 304 300 302 298 296 292 291 292 292 293 292 289 291 292 294 295 288 282 280 278 280 281 285 287 288 281 275 270 271 275 275 278 277 277 275 279
307 308 308 309 310 309 309 309 309 310 312 303 300 303 300 291 289 295 291 292 286 285 285 287 292 294 290 283 281 275 275 276 275 277 282 283 281 272 270 264 263 276 280 283 282 271 280
306 307 308 309 308 308 308 308 308 309 309 304 298 301 297 288 290 293 288 288 290 286 284 286 287 287 285 278 275 275 274 278 272 273 274 275 274 266 262 260 269 278 282 284 266 269 277
305 306 307 308 308 308 307 308 308 308 307 300 294 297 295 287 286 290 293 290 289 287 282 284 283 281 278 272 276 274 274 275 275 276 275 273 270 268 269 259 261 282 281 271 276 279 280
304 306 307 307 307 306 307 307 307 306 302 300 292 296 295 288 285 290 289 289 291 292 285 283 282 281 280 275 272 275 275 276 275 267 277 272 274 269 272 271 279 282 279 282 281 278 280
Wind_Speed
21 20 18 16 15 13 12 11 10 9 7 9 8 8 10 12 13 15 16 16 17 19 19 15 14 13 7 3 8 2 4 5 5 2 3 3 3 4 3 3 2 4 5 6 6 8 6
21 20 19 17 16 15 14 12 10 10 8 9 8 8 9 11 13 16 18 17 17 19 20 17 12 7 2 1 2 3 6 4 2 2 2 3 4 3 2 2 3 3 5 7 6 8 6
21 21 20 18 17 15 14 12 10 10 8 9 10 9 7 12 12 15 20 20 18 19 19 18 7 4 3 10 4 4 4 2 2 2 3 3 4 3 3 3 3 4 7 8 5 3 4
23 22 21 19 18 16 14 12 11 11 9 10 9 9 8 10 11 15 19 23 19 21 12 4 7 2 5 3 1 2 2 3 4 4 3 5 6 4 4 1 6 5 2 6 5 4 3
24 24 22 20 18 17 15 13 12 11 10 9 9 8 9 11 11 14 18 25 22 9 3 9 1 2 6 3 3 3 1 2 1 1 2 4 5 3 4 4 4 5 4 6 9 5 4
26 24 21 20 19 18 16 15 12 11 11 9 7 8 10 11 10 14 18 22 11 4 5 3 3 3 3 3 4 7 4 2 2 1 2 4 5 4 3 4 4 3 4 6 6 4 7
26 25 22 20 19 19 17 17 15 12 11 9 7 7 9 11 10 12 10 7 10 6 8 2 10 5 6 7 4 3 3 2 3 7 3 2 4 6 11 9 5 2 3 10 12 12 3
26 25 23 22 20 19 18 16 14 13 11 9 7 8 8 10 8 12 2 6 3 2 10 2 5 7 6 2 4 3 4 4 2 3 2 5 6 9 3 4 5 5 6 12 11 11 6
26 25 24 22 21 20 19 17 15 13 11 9 6 7 6 8 8 3 3 5 2 3 2 8 4 4 4 3 2 4 2 2 2 3 4 5 4 5 5 3 3 4 6 5 10 6 4
25 24 24 23 22 21 20 17 15 13 12 10 9 8 6 7 4 1 3 3 3 3 5 5 1 1 1 3 2 5 4 1 2 2 5 5 3 2 2 4 7 5 9 12 7 2 5
20 24 24 25 22 21 20 18 16 14 12 11 10 8 6 3 3 2 5 2 3 3 5 1 1 1 1 2 5 3 1 2 3 4 2 8 3 5 6 7 5 11 5 8 5 6 2
22 22 25 25 24 22 21 20 18 15 13 12 11 8 9 0 2 5 3 3 5 6 5 2 2 2 4 3 3 5 2 2 0 3 3 9 2 4 9 6 7 5 6 5 4 2 6
26 22 22 25 25 23 22 21 20 16 15 14 11 11 6 4 4 4 2 4 6 5 2 1 1 3 2 4 3 2 2 4 2 5 7 4 8 6 2 1 3 2 5 6 5 1 7
21 22 28 26 24 24 23 21 20 18 17 14 13 11 2 1 4 3 2 4 5 4 5 2 2 5 4 3 1 3 0 3 3 2 3 4 7 2 2 2 3 6 8 6 8 4 7
27 22 29 27 25 24 23 22 21 20 18 15 15 2 2 3 1 2 4 3 8 6 3 4 1 2 5 2 2 4 4 4 4 7 4 5 5 3 2 2 0 1 4 2 5 2 8
32 30 29 26 25 23 23 23 21 22 22 23 5 4 3 5 5 2 2 4 4 4 5 2 5 6 4 4 2 2 3 4 4 6 2 2 11 3 2 1 5 6 3 1 2 6 9
17 28 28 28 24 23 23 24 23 24 26 18 4 4 1 3 4 2 5 7 5 3 4 6 7 6 7 4 8 5 3 3 1 2 2 3 4 2 3 5 8 3 5 3 1 4 5
18 26 28 23 23 24 24 24 26 28 28 16 5 6 1 4 5 3 5 7 4 4 2 3 2 5 7 6 6 5 8 9 4 6 3 4 2 7 13 7 3 3 2 3 5 3 3
20 23 30 32 30 28 25 25 29 31 30 7 6 3 1 3 7 7 1 3 5 6 7 7 7 8 6 7 6 11 8 3 3 6 6 6 3 7 6 5 4 2 3 4 2 1 6
18 19 31 31 27 25 27 29 31 33 27 7 5 4 2 1 1 3 5 5 5 2 4 4 3 3 3 4 6 3 4 2 2 3 7 4 4 9 15 10 3 4 2 2 4 3 4
18 19 23 29 28 28 27 28 33 35 27 7 4 5 6 6 4 5 6 9 6 7 3 5 4 12 8 6 3 7 7 4 3 9 4 4 6 6 8 8 6 8 7 7 8 7 8
20 15 18 24 29 27 29 31 35 36 29 9 8 7 1 4 8 15 8 9 11 3 9 6 8 12 10 9 11 5 3 4 3 5 5 2 2 1 4 8 8 7 6 12 14 14 16
17 14 13 19 24 27 26 28 34 37 23 4 2 3 6 7 5 9 9 12 12 9 5 3 11 5 8 10 4 3 4 4 4 5 7 6 3 1 4 4 5 6 5 5 2 4 6
18 16 13 15 20 24 26 29 35 38 35 5 4 5 5 3 6 7 10 13 11 12 7 3 5 6 5 10 8 6 3 2 4 5 4 5 4 2 3 4 3 2 2 2 3 8 7
20 18 17 16 21 23 24 28 33 37 38 4 3 5 5 10 8 4 9 5 10 6 4 2 3 5 8 4 3 2 0 1 3 6 8 4 3 1 2 3 8 2 4 3 3 6 4
16 17 18 19 21 22 24 26 31 33 36 4 3 2 4 9 8 7 7 6 5 4 4 3 5 7 3 2 2 4 4 1 2 3 4 4 3 4 2 1 5 3 4 3 3 5 5
15 16 17 17 20 18 22 26 30 32 27 7 3 2 5 7 2 1 4 5 6 5 4 4 6 2 1 2 2 3 3 3 3 4 5 3 1 5 2 4 9 3 4 2 7 9 2
13 17 22 20 18 20 22 24 26 27 23 9 3 3 5 5 3 6 3 5 5 4 5 7 4 2 2 4 2 2 2 2 2 1 4 4 4 4 3 1 7 6 4 6 8 5 5
13 19 21 18 19 20 20 20 23 26 23 11 5 4 8 9 5 2 4 3 1 6 7 1 1 4 5 5 1 2 2 2 3 2 1 4 7 5 8 7 4 6 7 7 4 7 7
Wind_Direction
210 209 216 209 210 201 214 216 233 242 251 270 286 294 306 315 315 312 307 306 307 307 306 306 297 302 325 25 255 11 99 98 105 85 127 128 131 135 174 204 313 203 270 285 280 302 264
209 208 213 202 215 200 209 212 214 240 245 263 273 288 303 308 311 309 306 307 307 306 310 306 292 285 177 293 233 124 126 109 120 155 135 150 175 179 143 227 171 282 271 269 278 259 249
210 209 210 205 206 208 205 205 215 228 243 258 275 283 299 304 309 308 307 307 311 306 314 307 269 212 147 240 113 89 145 177 172 189 164 202 161 120 111 326 304 282 317 317 251 256 252
210 212 208 204 207 207 200 201 214 222 226 253 264 286 298 298 305 305 309 308 317 307 325 322 137 240 240 246 264 327 116 311 228 223 258 156 138 105 139 235 356 341 32 336 298 357 285
210 213 210 200 206 207 198 202 207 217 224 239 259 277 289 296 306 305 313 308 312 321 123 139 120 289 294 354 12 346 145 290 274 221 240 106 98 107 48 93 1 355 258 282 327 6 344
205 211 210 200 201 209 199 199 205 208 218 219 246 281 291 293 308 312 320 305 294 102 131 208 255 321 355 325 294 316 274 191 135 101 78 61 57 93 55 86 237 241 272 269 248 280 353
206 204 203 204 199 205 201 202 193 206 218 223 226 253 280 292 317 324 349 0 11 351 40 195 292 266 294 297 277 259 272 88 74 53 137 4 101 207 217 196 186 194 245 255 269 265 237
204 203 201 203 197 201 200 203 196 193 214 218 204 250 274 290 319 325 68 75 113 240 319 274 245 270 270 242 329 309 120 162 95 115 99 28 228 228 187 176 199 227 253 272 280 274 163
203 197 198 199 198 195 199 198 194 187 204 198 196 242 259 288 314 47 71 113 32 126 335 304 215 245 289 144 333 297 131 92 166 129 200 174 237 114 164 181 195 238 218 245 250 323 274
200 198 193 194 197 193 196 195 193 183 192 185 199 209 247 276 325 133 105 134 15 154 44 288 307 236 112 253 318 205 201 118 325 248 171 225 288 156 216 266 170 239 247 238 247 349 247
216 201 196 192 193 193 192 189 186 182 184 178 192 197 189 287 234 134 132 339 84 70 5 148 193 208 16 342 299 21 166 79 264 296 93 257 249 255 247 235 170 266 231 240 228 225 308
229 213 202 196 190 190 188 186 175 178 177 179 183 170 152 114 317 270 13 59 80 47 255 46 65 19 29 337 284 305 73 76 234 243 241 264 248 214 221 242 219 309 306 290 52 154 261
214 200 210 203 190 190 191 186 172 174 172 174 173 167 175 138 232 315 325 67 59 145 349 145 98 39 194 263 306 292 328 314 207 320 287 292 264 249 165 281 350 88 39 316 314 335 238
204 202 207 203 195 190 189 182 171 170 165 172 159 151 243 143 291 344 19 62 141 222 264 80 16 350 317 22 323 346 324 285 275 224 291 284 327 350 14 180 255 210 167 186 272 238 267
226 207 205 199 195 191 185 179 171 165 162 142 127 140 184 212 329 30 73 167 187 180 185 157 105 85 325 310 291 33 204 224 240 171 187 304 258 283 241 19 114 350 200 265 292 74 291
206 204 199 195 189 189 184 174 169 163 146 141 142 139 213 176 153 62 137 204 216 174 131 135 164 178 226 242 278 317 259 187 234 189 144 288 294 229 327 248 249 200 201 305 49 264 250
241 195 188 185 193 190 181 175 167 156 148 144 112 166 95 275 98 172 199 200 193 245 149 172 210 224 206 227 217 228 238 289 86 76 35 8 221 238 48 198 209 228 212 122 245 219 259
242 202 189 187 196 190 181 174 162 156 153 156 144 195 78 258 178 206 190 173 167 171 204 219 288 239 208 197 217 230 224 206 122 148 188 172 256 269 270 260 65 70 347 128 225 225 218
226 238 189 186 186 188 178 173 165 159 159 139 151 113 346 286 199 208 221 178 184 157 184 184 228 211 214 200 257 227 224 90 147 171 162 161 226 302 295 25 38 75 47 110 77 138 233
218 251 187 186 187 179 181 175 164 162 165 107 126 137 303 221 359 196 151 201 190 216 219 153 173 124 158 219 234 257 209 182 105 98 107 108 218 225 255 287 89 272 206 83 185 228 294
213 233 193 184 179 183 182 172 168 167 168 123 149 200 182 188 213 198 187 165 163 191 216 173 216 214 181 216 214 231 238 162 165 149 122 182 248 216 264 279 263 244 227 218 225 231 244
206 220 197 185 189 187 179 176 173 170 172 194 148 146 74 149 151 196 187 196 214 155 148 222 225 208 202 213 209 200 157 155 182 121 149 159 271 269 264 248 247 262 237 234 232 247 257
214 205 205 188 186 187 183 177 173 174 171 155 122 55 126 160 148 173 204 202 191 141 219 199 214 163 206 230 106 86 90 103 152 176 174 179 181 134 271 29 314 286 246 235 260 276 273
199 203 208 203 192 189 183 177 179 181 187 125 165 114 115 192 188 201 173 199 188 197 216 163 164 145 98 99 87 76 79 178 187 201 182 175 163 184 312 347 276 199 29 288 289 279 307
198 203 206 210 197 193 182 180 182 185 193 126 147 151 147 213 181 169 148 166 106 87 86 102 52 111 142 84 81 117 127 264 234 220 211 198 107 224 237 250 312 147 10 58 40 298 246
193 197 199 211 198 192 183 183 185 187 191 109 99 94 115 133 202 137 160 150 133 117 97 96 71 123 101 102 121 172 199 160 147 109 48 123 101 131 132 165 267 203 190 184 185 283 242
188 196 205 207 196 184 181 183 186 190 177 134 114 226 107 102 55 109 144 149 122 120 113 131 150 137 360 118 125 167 187 167 190 175 164 139 106 174 164 223 283 227 171 148 77 246 273
199 212 202 197 197 188 186 181 183 174 152 114 98 340 101 98 69 24 50 133 113 129 141 150 105 284 70 82 146 181 152 181 164 204 165 164 165 216 136 97 282 158 109 142 224 282 268
216 212 195 182 182 169 167 165 155 148 133 115 94 82 71 75 87 355 65 1 98 168 135 84 116 151 164 99 54 120 144 125 150 253 123 218 186 188 180 216 213 196 204 243 241 248 267